Overview Statistics Trail Chart Weather Telemetry Raw packets
 

This is the latest recevied weather packets stored in our database for station/object HB9FHL-13. If no packets are shown the sender has not sent any weather packets the latest 10 day(s).

<< 107 108 109 110 111 112 113 >>
Time Temp. Humidity Pressure Rain* Wind** Luminosity Snow
1787992053 17.22° C - 1020.1 hPa 0 mm - - -
1787992050 17.22° C - 1020.1 hPa 0 mm - - -
1787991752 17.22° C - 1018.7 hPa 0 mm - - -
1787991449 17.78° C - 1019.9 hPa 0 mm - - -
1787991148 17.22° C - 1019.1 hPa 0 mm - - -
1787990851 17.22° C - 1023.3 hPa 0 mm - - -
1787990848 17.22° C - 1023.3 hPa 0 mm - - -
1787990247 17.78° C - 1020.7 hPa 0 mm - - -
1787989950 17.78° C - 1019.2 hPa 0 mm - - -
1787989946 17.78° C - 1019.2 hPa 0 mm - - -
1787989650 17.78° C - 1019.1 hPa 0 mm - - -
1787989645 17.78° C - 1019.1 hPa 0 mm - - -
1787989350 16.67° C - 1021.2 hPa 0 mm - - -
1787989344 16.67° C - 1021.2 hPa 0 mm - - -
1787988749 17.22° C - 1016.9 hPa 0 mm - - -
1787988744 17.22° C - 1016.9 hPa 0 mm - - -
1787988446 17.22° C - 1018.8 hPa 0 mm - - -
1787988442 17.22° C - 1018.8 hPa 0 mm - - -
1787988146 17.22° C - 1021.3 hPa 0 mm - - -
1787988142 17.22° C - 1021.3 hPa 0 mm - - -
1787987841 16.67° C - 1018.4 hPa 0 mm - - -
1787987549 16.11° C - 1018.2 hPa 0 mm - - -
1787987541 16.11° C - 1018.2 hPa 0 mm - - -
1787986939 16.11° C - 1020.6 hPa 0 mm - - -
1787986636 16.11° C - 1017.2 hPa 0 mm - - -

* Rain since midnight (hover to see other rain measurements)
** Current wind speed in m/s (hover to see current wind gust speed)